[[{"header":{"parameterUnit":"m.s-1","parameterCategory":2,"la1":30.2992,"la2":30.254,"lo1":-89.0895,"lo2":-89.0443,"dy":0.0025,"dx":0.0025,"nx":19,"ny":19,"refTime":"2026-04-20T09:00:00:Z","depth":"0","parameterNumber":2,"parameterNumberName":"U-component_of_CURRENTS"},"data":[0,0,0,0.1006,0.1008,0.1096,0.1097,0.1231,0.1232,0,0,0,0,0,0,0,0,0,0,0,0.0978,0.0978,0.1006,0.1008,0.1096,0.1097,0.1231,0.1232,0,0,0,0,0,0,0,0,0,0,0,0.0978,0.0978,0.0979,0.1008,0.1096,0.1097,0.1231,0.1162,0,0,0,0,0,0,0,0,0,0,0.1075,0.1041,0.0978,0.0979,0.1008,0.1096,0.1097,0.1159,0.1166,0.1193,0,0.1199,0,0.1213,0.124,0.1241,0,0,0,0.1022,0.1035,0.1055,0.0979,0.1009,0.1096,0.106,0.1163,0.1172,0.1203,0.1201,0.1206,0.1215,0.1241,0.1242,0.1374,0.1374,0,0,0.1017,0.1002,0.1049,0.106,0.1024,0.1057,0.1063,0.1168,0.1176,0.1202,0.1209,0.1217,0.1242,0.1243,0.1373,0.1374,0,0,0,0.0994,0.0998,0.1016,0.1055,0.1066,0.1059,0.1066,0.1172,0.1176,0.1211,0.1219,0.1243,0.1244,0.1372,0.1373,0.1354,0,0,0,0.0991,0.0983,0.1013,0.1006,0.1063,0.1117,0.1067,0.1169,0.1181,0.1218,0.1243,0.1245,0.1372,0.1373,0.1353,0.1358,0,0,0,0.0975,0.0982,0.0988,0.1005,0.1036,0.1115,0.1127,0.1172,0.1186,0.1241,0.1246,0.1371,0.1373,0.1353,0.1357,0.1382,0,0,0,0.0962,0.097,0.0988,0.101,0.1035,0.1106,0.1126,0.1186,0.1233,0.1243,0.1372,0.1373,0.1352,0.1356,0.1381,0.1281,0.1277,0,0,0.0964,0.097,0.0986,0.1003,0.1059,0.1095,0.1172,0.1234,0.1263,0.134,0.1343,0.1354,0.1356,0.1382,0.1353,0.1347,0,0,0,0.0981,0.0991,0.1013,0.105,0.1103,0.1165,0.1228,0.1259,0.1324,0.1293,0.1385,0.1388,0.1404,0.1343,0.1339,0.0977,0.1379,0.1379,0.1379,0.0969,0.1001,0.1037,0.1087,0.1139,0.1224,0.1275,0.1333,0.1353,0.1378,0.1395,0.1434,0.1368,0.1364,0.0992,0.1414,0.1414,0.1414,0.1414,0.0974,0.0995,0.105,0.1089,0.1162,0.1232,0.1331,0.1352,0.1424,0.142,0.1436,0.1353,0.1358,0.0963,0.1414,0.1414,0.1414,0.1414,0.1414,0.096,0.0974,0.0999,0.1066,0.1148,0.1239,0.1311,0.1372,0.1417,0.1437,0.1387,0.1386,0.102,0.1445,0.1445,0.1445,0.1445,0.1445,0.1445,0.0929,0.0958,0.0985,0.1055,0.1108,0.1193,0.1303,0.134,0.1369,0.138,0.1379,0.0981,0.1444,0.1421,0.1447,0.1447,0.1447,0.1446,0.1446,0.0918,0.0926,0.0965,0.1005,0.1116,0.1155,0.1249,0.1266,0.1309,0.1297,0.086,0.1353,0.1355,0.1358,0.1334,0.1337,0.1337,0.1337,0.1337,0.0906,0.0914,0.0965,0.1026,0.1102,0.115,0.1088,0.1042,0.0835,0.0634,0.0609,0.05,0.052,0.0468,0.049,0.0447,0.0225,0.0223,0.0221,0.091,0.0925,0.096,0.1019,0.1107,0.1112,0.0968,0.0663,0.0277,0.014,0.0117,0.0165,-0.0028,0.0034,-0.0068,-0.0008,-0.0081,0,0]},{"header":{"parameterUnit":"m.s-1","parameterCategory":2,"la1":30.2992,"la2":30.254,"lo1":-89.0895,"lo2":-89.0443,"dy":0.0025,"dx":0.0025,"nx":19,"ny":19,"refTime":"2026-04-20T09:00:00:Z","depth":"0","parameterNumber":3,"parameterNumberName":"V-component_of_CURRENTS"},"data":[0,0,0,0.0084,0.0085,0.0089,0.0089,0.0046,0.0046,0,0,0,0,0,0,0,0,0,0,0,0.0076,0.0077,0.0084,0.0085,0.0089,0.0089,0.0047,0.0046,0,0,0,0,0,0,0,0,0,0,0,0.0076,0.0077,0.0077,0.0085,0.0089,0.0089,0.0047,0.0053,0,0,0,0,0,0,0,0,0,0,0.0054,0.0058,0.0077,0.0077,0.0085,0.0089,0.0089,0.0054,0.0052,0.0034,0,0.0038,0,0.0047,0.0043,0.0043,0,0,0,0.0075,0.0059,0.0062,0.0077,0.0085,0.0089,0.0084,0.0053,0.0052,0.0032,0.0038,0.0037,0.0047,0.0043,0.0043,0.001,0.001,0,0,0.0074,0.0073,0.0063,0.0062,0.009,0.0084,0.0084,0.0053,0.0051,0.0038,0.0036,0.0046,0.0042,0.0042,0.001,0.001,0,0,0,0.008,0.0073,0.0077,0.0063,0.0071,0.0085,0.0085,0.0052,0.0054,0.0036,0.0045,0.0042,0.0042,0.001,0.001,0.0044,0,0,0,0.008,0.0077,0.0077,0.0076,0.0072,0.0069,0.0085,0.0056,0.0054,0.0046,0.0042,0.0041,0.001,0.001,0.0044,0.0071,0,0,0,0.0076,0.0077,0.0079,0.0076,0.0083,0.007,0.007,0.0056,0.0059,0.0043,0.0041,0.001,0.001,0.0043,0.0069,0.0123,0,0,0,0.0071,0.0077,0.0079,0.0089,0.0084,0.0083,0.0071,0.0064,0.0052,0.0042,0.001,0.001,0.0043,0.0068,0.0121,0.0243,0.0261,0,0,0.0077,0.0078,0.0084,0.0086,0.0097,0.0082,0.0083,0.0062,0.0043,0.0015,0.0015,0.0044,0.0069,0.0122,0.0239,0.0258,0,0,0,0.0085,0.0092,0.0094,0.0102,0.0098,0.0096,0.0076,0.007,0.0054,0.0038,0.0033,0.0048,0.0081,0.0149,0.0164,0.0223,0.0009,0.001,0.001,0.0092,0.0097,0.0106,0.0111,0.0108,0.01,0.0102,0.0086,0.006,0.006,0.0068,0.012,0.0192,0.0205,0.0263,0.0051,0.0051,0.0051,0.0051,0.0108,0.0114,0.0116,0.0128,0.0123,0.0119,0.0116,0.0111,0.0132,0.0091,0.0122,0.0171,0.0224,0.0279,0.0053,0.0053,0.0052,0.0052,0.0052,0.0115,0.0117,0.0125,0.0138,0.0143,0.0138,0.0163,0.0159,0.0169,0.0195,0.0285,0.0285,0.0345,0.0214,0.0215,0.0215,0.0215,0.0215,0.0216,0.0115,0.0122,0.0137,0.0151,0.016,0.0174,0.0197,0.0232,0.0316,0.0345,0.0346,0.038,0.0171,0.0177,0.0221,0.022,0.0219,0.0219,0.0219,0.0123,0.0127,0.015,0.0164,0.0193,0.0234,0.0259,0.0395,0.0448,0.0527,0.0604,0.0433,0.0443,0.0431,0.0443,0.0554,0.0554,0.0554,0.0554,0.0127,0.0131,0.0159,0.0183,0.0216,0.0257,0.0395,0.0537,0.0706,0.0804,0.0772,0.076,0.0744,0.0768,0.0749,0.0766,0.0956,0.0956,0.0957,0.0133,0.014,0.0159,0.0184,0.0222,0.0297,0.0454,0.0635,0.0883,0.0972,0.0831,0.0814,0.0788,0.0758,0.0783,0.0752,0.0774,0,0]}],[{"header":{"parameterUnit":"m.s-1","parameterCategory":2,"la1":30.2992,"la2":30.254,"lo1":-89.0895,"lo2":-89.0443,"dy":0.0025,"dx":0.0025,"nx":19,"ny":19,"refTime":"2026-04-20T09:00:00:Z","depth":"2","parameterNumber":2,"parameterNumberName":"U-component_of_CURRENTS"},"data":[0,0,0,0.1076,0.1078,0.1171,0.1172,0.1356,0.1358,0,0,0,0,0,0,0,0,0,0,0,0.1047,0.1048,0.1076,0.1078,0.1171,0.1172,0.1356,0.1358,0,0,0,0,0,0,0,0,0,0,0,0.1047,0.1048,0.1048,0.1078,0.1171,0.1172,0.1356,0.1273,0,0,0,0,0,0,0,0,0,0,0.1176,0.1132,0.1048,0.1048,0.1079,0.1171,0.1172,0.1268,0.1278,0.1328,0,0.1334,0,0.1345,0.137,0.1371,0,0,0,0.1094,0.1123,0.1148,0.1048,0.1079,0.1171,0.1134,0.1273,0.1284,0.1341,0.1337,0.1343,0.1348,0.1372,0.1373,0.1559,0.156,0,0,0.1089,0.1071,0.114,0.1154,0.1095,0.1131,0.1136,0.128,0.129,0.1337,0.1347,0.1351,0.1373,0.1374,0.1558,0.1559,0,0,0,0.1063,0.1068,0.1087,0.1147,0.1156,0.1133,0.114,0.1284,0.129,0.1349,0.1353,0.1374,0.1376,0.1558,0.1559,0.1511,0,0,0,0.1061,0.1052,0.1085,0.1077,0.1152,0.1211,0.1141,0.128,0.1296,0.1352,0.1374,0.1378,0.1557,0.1558,0.151,0.1501,0,0,0,0.1045,0.105,0.1058,0.1075,0.1108,0.1209,0.1223,0.1283,0.1298,0.1371,0.1379,0.1557,0.1558,0.151,0.1501,0.1522,0,0,0,0.1029,0.1038,0.1057,0.1082,0.1107,0.1188,0.1222,0.1289,0.1349,0.1375,0.1557,0.1559,0.151,0.1501,0.1522,0.1418,0.1411,0,0,0.1031,0.1038,0.1056,0.1075,0.1137,0.1176,0.1268,0.135,0.1394,0.1516,0.152,0.1511,0.1501,0.1522,0.1508,0.1499,0,0,0,0.1051,0.1062,0.1086,0.1127,0.1188,0.126,0.1338,0.138,0.1467,0.1434,0.1556,0.1553,0.1567,0.1505,0.1499,0.1566,0.1566,0.1566,0.1566,0.1036,0.1073,0.1112,0.1171,0.123,0.1332,0.1392,0.1472,0.1502,0.153,0.1547,0.1577,0.1512,0.1505,0.158,0.158,0.158,0.1579,0.1579,0.1039,0.1063,0.1126,0.117,0.1258,0.1341,0.1463,0.1486,0.1566,0.1568,0.1583,0.1499,0.1494,0.1577,0.1577,0.1577,0.1578,0.1578,0.1578,0.1024,0.104,0.1067,0.1143,0.1235,0.1341,0.142,0.1485,0.1536,0.1548,0.15,0.1499,0.1536,0.1547,0.1547,0.1548,0.1548,0.1548,0.1548,0.099,0.1022,0.1051,0.1127,0.1184,0.127,0.1387,0.1425,0.145,0.1465,0.1464,0.1568,0.1569,0.1538,0.1549,0.1548,0.1548,0.1548,0.1548,0.098,0.0988,0.103,0.1073,0.1187,0.1227,0.1321,0.1332,0.1373,0.1359,0.1432,0.1434,0.1447,0.1452,0.1421,0.1401,0.1401,0.1401,0.1401,0.0967,0.0976,0.1029,0.1093,0.1171,0.1222,0.1163,0.1055,0.1083,0.1004,0.102,0.0962,0.0979,0.0963,0.0979,0.0938,0.0791,0.079,0.0789,0.097,0.0986,0.1022,0.1083,0.1175,0.118,0.1051,0.0707,0.048,0.0757,0.0831,0.1376,0.1336,0.1344,0.136,0.137,0.132,0,0]},{"header":{"parameterUnit":"m.s-1","parameterCategory":2,"la1":30.2992,"la2":30.254,"lo1":-89.0895,"lo2":-89.0443,"dy":0.0025,"dx":0.0025,"nx":19,"ny":19,"refTime":"2026-04-20T09:00:00:Z","depth":"2","parameterNumber":3,"parameterNumberName":"V-component_of_CURRENTS"},"data":[0,0,0,0.0045,0.0046,0.0049,0.0049,-0.0011,-0.0012,0,0,0,0,0,0,0,0,0,0,0,0.0038,0.0038,0.0045,0.0046,0.0049,0.0049,-0.0011,-0.0012,0,0,0,0,0,0,0,0,0,0,0,0.0038,0.0038,0.0038,0.0046,0.0049,0.0049,-0.0011,0.0,0,0,0,0,0,0,0,0,0,0,0.0004,0.0012,0.0038,0.0038,0.0046,0.0049,0.0049,0.0001,-0.0001,-0.0028,0,-0.0023,0,-0.0013,-0.0016,-0.0017,0,0,0,0.0035,0.0014,0.0016,0.0038,0.0046,0.0049,0.0044,0.0001,-0.0002,-0.003,-0.0023,-0.0025,-0.0014,-0.0017,-0.0017,-0.0064,-0.0064,0,0,0.0035,0.0034,0.0017,0.0015,0.0051,0.0044,0.0045,-0.0,-0.0003,-0.0023,-0.0026,-0.0015,-0.0017,-0.0018,-0.0064,-0.0064,0,0,0,0.0042,0.0034,0.0038,0.0016,0.0025,0.0045,0.0045,-0.0001,0.0001,-0.0026,-0.0016,-0.0018,-0.0018,-0.0064,-0.0064,-0.0022,0,0,0,0.0041,0.0039,0.0038,0.0037,0.0027,0.0022,0.0045,0.0004,-0.0,-0.0015,-0.0018,-0.0019,-0.0064,-0.0064,-0.0023,0.0008,0,0,0,0.0037,0.0038,0.0041,0.0037,0.0044,0.0023,0.0023,0.0003,0.0006,-0.0017,-0.0019,-0.0064,-0.0064,-0.0024,0.0006,0.0064,0,0,0,0.0033,0.0039,0.0041,0.005,0.0044,0.0041,0.0023,0.0014,-0.0003,-0.0018,-0.0064,-0.0064,-0.0024,0.0004,0.0062,0.0195,0.0215,0,0,0.0039,0.004,0.0046,0.0048,0.0054,0.0039,0.0034,0.0007,-0.0014,-0.0056,-0.0057,-0.0022,0.0006,0.0063,0.0192,0.0214,0,0,0,0.0047,0.0053,0.0055,0.006,0.0053,0.0047,0.0022,0.0015,-0.0005,-0.0022,-0.0035,-0.0019,0.0017,0.0091,0.0108,-0.0065,-0.0065,-0.0065,-0.0065,0.0053,0.0056,0.0064,0.0066,0.0059,0.0045,0.0045,0.0026,-0.0002,0.0002,0.0006,0.0066,0.0144,0.0158,-0.0013,-0.0012,-0.0012,-0.0012,-0.0012,0.0069,0.0075,0.0073,0.0084,0.0072,0.0064,0.0055,0.0052,0.0076,0.0035,0.0067,0.012,0.0179,-0.0009,-0.001,-0.001,-0.001,-0.0011,-0.0011,0.0075,0.0077,0.0086,0.0095,0.0096,0.0086,0.0111,0.0107,0.0121,0.0149,0.0248,0.0249,0.0119,0.0174,0.0174,0.0174,0.0175,0.0175,0.0175,0.0076,0.0082,0.0098,0.011,0.0118,0.0132,0.0154,0.0193,0.0286,0.0318,0.0319,0.0129,0.0123,0.013,0.0181,0.018,0.0179,0.0179,0.0178,0.0085,0.0089,0.0112,0.0125,0.0153,0.0196,0.0222,0.0373,0.043,0.0516,0.0421,0.0413,0.0422,0.0409,0.0423,0.0547,0.0547,0.0547,0.0547,0.0089,0.0093,0.0123,0.0146,0.0178,0.0221,0.037,0.0539,0.0648,0.0714,0.0706,0.0682,0.0665,0.0683,0.0664,0.068,0.0872,0.0872,0.0873,0.0097,0.0104,0.0125,0.015,0.0185,0.0267,0.0437,0.0563,0.0716,0.0879,0.0695,0.0582,0.0524,0.0506,0.0511,0.0489,0.0506,0,0]}],[{"header":{"parameterUnit":"m.s-1","parameterCategory":2,"la1":30.2992,"la2":30.254,"lo1":-89.0895,"lo2":-89.0443,"dy":0.0025,"dx":0.0025,"nx":19,"ny":19,"refTime":"2026-04-20T09:00:00:Z","depth":"4","parameterNumber":2,"parameterNumberName":"U-component_of_CURRENTS"},"data":[0,0,0,0.0492,0.049,0.0413,0.0413,0.0345,0.0345,0,0,0,0,0,0,0,0,0,0,0,0.0527,0.0526,0.0492,0.049,0.0413,0.0413,0.0345,0.0345,0,0,0,0,0,0,0,0,0,0,0,0.0527,0.0526,0.0526,0.049,0.0413,0.0413,0.0345,0.0395,0,0,0,0,0,0,0,0,0,0,0.0465,0.0505,0.0527,0.0526,0.049,0.0413,0.0413,0.0397,0.0392,0.039,0,0.0385,0,0.0362,0.0341,0.0341,0,0,0,0.0486,0.0509,0.0478,0.0526,0.0489,0.0414,0.0447,0.0394,0.0388,0.0384,0.0384,0.0381,0.0361,0.0341,0.0341,0.0288,0.0288,0,0,0.049,0.0521,0.0482,0.0474,0.0478,0.0449,0.0445,0.039,0.0395,0.0384,0.0379,0.036,0.0341,0.034,0.0289,0.0288,0,0,0,0.0505,0.0524,0.0493,0.0478,0.046,0.0447,0.0442,0.0398,0.0385,0.0378,0.0359,0.034,0.034,0.0289,0.0289,0.0294,0,0,0,0.0508,0.0532,0.0495,0.0514,0.0462,0.0426,0.0451,0.0389,0.0381,0.036,0.034,0.0339,0.0289,0.0289,0.0295,0.0277,0,0,0,0.0528,0.0535,0.0526,0.0515,0.0481,0.0426,0.041,0.0386,0.037,0.0341,0.0339,0.0289,0.0289,0.0295,0.0278,0.0299,0,0,0,0.056,0.0541,0.0527,0.0493,0.0482,0.0401,0.041,0.0366,0.0341,0.034,0.0289,0.0289,0.0295,0.0279,0.03,0.0187,0,0,0,0.0547,0.0541,0.0514,0.0498,0.0421,0.0411,0.0341,0.0326,0.0335,0.0309,0.0307,0.0295,0.0278,0.0299,0.0161,0,0,0,0,0.0514,0.0495,0.0469,0.0424,0.0371,0.0327,0.0301,0.0302,0.0302,0.0318,0.0284,0.0272,0.0286,0.022,0.0286,0.0286,0.0287,0.0287,0.0287,0.0538,0.0485,0.0424,0.0356,0.0314,0.0267,0.0247,0.0246,0.0263,0.0278,0.027,0.0276,0.0204,0.0273,0.0273,0.0273,0.0273,0.0273,0.0273,0.0491,0.0438,0.0383,0.0311,0.0265,0.0218,0.0191,0.0217,0.0236,0.0252,0.0267,0.022,0.0273,0.0273,0.0273,0.0273,0.0273,0.0273,0.0273,0.0487,0.0448,0.0409,0.0314,0.0242,0.0195,0.0137,0.0176,0.0232,0.0247,0.0208,0.0278,0.0287,0.0282,0.0282,0.0282,0.0282,0.0282,0.0282,0.0501,0.0445,0.0389,0.0301,0.0238,0.0167,0.0127,0.0106,0.0169,0.0182,0.0263,0.0279,0.0279,0.0287,0.0282,0.0282,0.0282,0.0282,0.0282,0.0467,0.0465,0.0374,0.0311,0.0141,0.0069,0.0051,0.0014,0.0026,0.0041,0.0151,0.0158,0.0146,0.0149,0.0153,0.0108,0.0106,0.0105,0,0.0468,0.0451,0.0316,0.018,0.0032,-0.0029,-0.0104,-0.0121,-0.0029,0.0003,0.0038,0.0165,0.0169,0.0155,0.0156,0.0158,0,0,0,0.0447,0.0406,0.0294,0.0139,-0.0054,-0.0139,-0.0142,-0.0147,-0.0003,-0.0091,0.0068,0.0078,0.0074,0.0283,0.0281,0.028,0.0294,0,0]},{"header":{"parameterUnit":"m.s-1","parameterCategory":2,"la1":30.2992,"la2":30.254,"lo1":-89.0895,"lo2":-89.0443,"dy":0.0025,"dx":0.0025,"nx":19,"ny":19,"refTime":"2026-04-20T09:00:00:Z","depth":"4","parameterNumber":3,"parameterNumberName":"V-component_of_CURRENTS"},"data":[0,0,0,0.0158,0.016,0.0287,0.0288,0.0473,0.0474,0,0,0,0,0,0,0,0,0,0,0,0.0119,0.012,0.0158,0.016,0.0287,0.0288,0.0472,0.0474,0,0,0,0,0,0,0,0,0,0,0,0.0119,0.012,0.012,0.0161,0.0287,0.0288,0.0472,0.0376,0,0,0,0,0,0,0,0,0,0,0.0252,0.0204,0.012,0.012,0.0161,0.0287,0.0288,0.0371,0.0382,0.0414,0,0.0425,0,0.0443,0.0485,0.0485,0,0,0,0.0182,0.0195,0.0226,0.0121,0.0162,0.0287,0.0236,0.0377,0.0389,0.0429,0.0428,0.0435,0.0446,0.0486,0.0487,0.0664,0.0665,0,0,0.0175,0.0151,0.0217,0.0233,0.0185,0.0232,0.024,0.0384,0.0395,0.0429,0.0439,0.0449,0.0487,0.0488,0.0664,0.0664,0,0,0,0.014,0.0146,0.0174,0.0225,0.0241,0.0235,0.0244,0.0389,0.0397,0.0441,0.0451,0.0488,0.049,0.0663,0.0664,0.0686,0,0,0,0.0137,0.0125,0.017,0.0159,0.0237,0.0313,0.0245,0.0387,0.0404,0.0451,0.0488,0.0492,0.0662,0.0663,0.0683,0.0691,0,0,0,0.0115,0.0122,0.0133,0.0157,0.0201,0.031,0.0328,0.0391,0.0409,0.0486,0.0492,0.0661,0.0663,0.0681,0.0688,0.0754,0,0,0,0.0094,0.0113,0.0132,0.017,0.02,0.0303,0.0327,0.0414,0.0481,0.0489,0.0662,0.0664,0.068,0.0686,0.0751,0.0615,0,0,0,0.0105,0.0113,0.014,0.016,0.0244,0.0288,0.0401,0.0488,0.0519,0.0618,0.0622,0.0684,0.0688,0.0753,0.0719,0,0,0,0,0.0136,0.0154,0.0185,0.0239,0.0311,0.04,0.0484,0.0528,0.0628,0.0561,0.0713,0.0716,0.0756,0.067,0.0672,0.0672,0.0672,0.0672,0.0671,0.0124,0.0172,0.0232,0.0307,0.0378,0.0492,0.0567,0.0646,0.0674,0.072,0.0755,0.0848,0.0759,0.0781,0.0781,0.0781,0.0781,0.0781,0.0781,0.0148,0.019,0.0266,0.0334,0.0433,0.0532,0.067,0.0704,0.0828,0.0811,0.0849,0.0725,0.0784,0.0784,0.0783,0.0783,0.0783,0.0783,0.0782,0.0137,0.0167,0.0209,0.0316,0.044,0.0566,0.0694,0.0789,0.085,0.0896,0.0846,0.0884,0.0859,0.0937,0.0938,0.0938,0.0938,0.0938,0.0939,0.0104,0.0155,0.0203,0.0315,0.0403,0.0543,0.0728,0.0801,0.0893,0.087,0.0926,0.0902,0.0896,0.087,0.0944,0.0943,0.0942,0.0942,0.0941,0.0106,0.0112,0.0185,0.0254,0.045,0.0546,0.0711,0.0805,0.0883,0.0889,0.0863,0.0865,0.0852,0.0849,0.082,0.0882,0.088,0.0879,0,0.0095,0.0106,0.0205,0.0319,0.0449,0.0575,0.0644,0.073,0.0799,0.077,0.0891,0.086,0.0861,0.0843,0.0838,0.0801,0,0,0,0.0108,0.0132,0.0208,0.0317,0.0467,0.0578,0.0667,0.0669,0.078,0.0785,0.0842,0.0852,0.0884,0.096,0.0947,0.094,0.0898,0,0]}]]